Dewpoint
51 47 46 45 41 40 38 38 39 42 40 34 30 30 31 30 31 33 34 34 34 33
49 47 44 42 40 40 39 40 43 42 39 30 29 31 31 31 31 33 32 32 31 31
44 42 41 42 42 41 43 42 43 39 32 30 30 32 32 32 32 32 32 31 30 30
41 41 43 43 43 42 42 43 38 33 30 30 30 32 33 33 33 32 30 30 30 29
40 40 40 40 41 43 41 37 32 30 30 30 31 32 33 32 31 31 29 29 29 28
40 41 42 42 42 39 33 30 30 30 30 30 31 31 32 32 31 30 31 30 30 29
42 42 38 35 31 29 29 29 30 30 30 31 32 32 33 32 31 31 31 30 30 29
39 34 31 29 28 27 28 27 29 30 30 31 32 32 31 31 32 31 30 29 28 28
31 26 24 26 27 27 27 28 30 29 29 29 29 30 32 32 31 30 29 28 28 29
24 25 26 27 27 26 26 29 29 29 28 27 28 28 29 30 31 29 28 28 29 29
26 28 27 26 25 26 28 28 28 28 28 28 28 29 30 31 31 29 29 29 28 28
28 26 26 26 26 27 27 27 27 27 26 25 26 28 30 30 30 30 29 29 29 27
27 26 26 26 27 27 27 26 27 25 25 26 27 28 30 30 30 29 29 29 28 27
27 25 26 26 26 26 26 26 25 25 25 25 26 26 27 29 30 29 28 28 27 26
Wind_Speed
16 15 15 17 17 17 15 15 10 5 4 7 7 6 6 5 5 5 5 5 5 4
14 15 17 17 17 18 16 11 9 8 11 11 8 7 6 6 7 7 6 4 4 5
16 17 18 18 18 16 13 9 8 9 9 9 8 8 9 8 7 8 6 6 7 7
17 14 15 15 16 16 13 11 9 11 11 11 11 11 11 11 11 11 8 7 8 10
18 19 18 14 11 5 6 8 12 13 14 10 11 11 13 13 11 12 9 10 8 11
19 15 14 11 10 9 10 11 10 6 7 8 10 10 12 13 11 9 10 10 10 13
18 14 12 11 11 13 10 7 4 3 5 8 9 10 11 9 10 10 10 10 11 13
9 11 12 11 10 7 5 2 1 3 4 5 6 8 9 10 10 11 11 11 11 11
15 14 12 9 7 4 2 1 4 5 5 6 7 10 11 12 12 12 12 14 12 11
14 12 7 6 5 1 4 4 7 7 6 8 10 13 15 16 13 13 12 13 13 13
10 7 7 3 2 5 4 6 7 8 8 9 13 15 16 15 11 11 12 13 14 13
6 5 2 6 7 5 6 7 7 7 9 11 13 13 13 12 11 14 16 14 13 14
4 2 4 6 7 7 7 10 9 12 12 12 15 13 13 12 11 13 14 13 15 18
2 3 5 7 6 9 11 12 15 17 17 16 17 18 17 17 14 15 15 14 14 14
Wind_Direction
193 185 175 166 162 164 157 152 147 107 165 185 177 172 185 173 195 193 189 188 206 246
184 181 177 161 158 156 153 144 142 161 201 194 191 204 192 203 209 202 201 211 232 252
171 163 158 146 145 146 143 146 176 198 216 200 213 213 204 217 220 215 224 230 235 252
161 139 127 135 149 156 157 169 196 194 201 217 223 221 216 226 225 224 232 235 239 263
115 122 126 125 121 141 180 211 187 203 212 219 229 230 229 236 231 230 242 261 254 264
130 131 135 148 164 190 180 192 196 215 238 248 249 253 251 245 244 238 251 261 264 264
146 157 159 154 163 168 172 172 177 217 255 268 279 274 271 253 242 250 258 261 262 259
135 127 129 138 146 134 125 126 217 265 274 276 278 278 266 250 252 260 265 265 259 254
127 132 136 130 111 95 74 284 229 228 258 282 280 273 267 259 257 257 260 271 272 270
134 126 111 107 106 140 236 245 244 261 277 287 290 287 277 264 252 249 257 267 269 274
120 114 109 92 277 245 253 256 266 275 284 291 292 290 285 277 267 256 260 263 265 257
108 132 130 254 262 268 259 261 263 266 285 289 293 299 290 281 271 267 266 263 255 247
143 192 267 283 279 268 250 261 267 276 274 278 287 291 283 275 266 272 266 262 255 247
230 324 293 291 275 282 274 272 276 278 280 277 271 276 273 266 253 252 263 258 255 243